Flag for Brazil Weather past 2 weeks in Volta Redonda, Rio de Janeiro, Brazil

Now
75 °F

Passing clouds.


Feels Like: 76 °F
Forecast: 67 / 89 °F
Wind: 3 mph from Southeast

Location: Galeao

Current Time: Dec 26, 2014 at 4:03:36 AM

Latest Report: Dec 26, 2014 at 3:00 AM


Visibility: N/A

Pressure: 30.04 "Hg

Humidity: 78%

Dew point: 68 °F

Location of Volta RedondaLocation

Historic Weather in Volta Redonda — Graph

°F

Volta Redonda temperature yesterday

Maximum temperature yesterday: 86 °F (at 1:00 PM)
Minimum temperature yesterday: 73 °F (at 2:00 AM)
Average temperature yesterday: 80 °F

Past Weeks' High & Low Weather Summary

 TemperatureHumidityPressure
High100 °F (Dec 22, 2:00 PM)100% (Dec 23, 11:00 PM)30.07 "Hg (Dec 23, 11:00 PM)
Low37 °F (Dec 23, 11:00 PM)22% (Dec 11, 2:00 PM)29.68 "Hg (Dec 18, 5:00 PM)
Average81 °F63%29.86 "Hg
* Reported Dec 11 3:00 AM — Dec 26 3:00 AM, Volta Redonda, Weather by CustomWeather, © 2014

Note: Actual official high and low records may vary slightly from our data, if they occured in-between our weather recording intervals... More about our weather records

Advertising

Volta Redonda weather history for previous 24 hours

 ConditionsComfort  
Time TempWeatherWind HumidityBarometerVisibility
3:00 AM
Dec 26
75 °FPassing clouds.3 mph78%30.04 "HgN/A
2:00 AM77 °FPassing clouds.2 mph74%30.07 "HgN/A
1:00 AM77 °FPassing clouds.3 mph74%30.07 "HgN/A
12:00 AM79 °FPassing clouds.5 mph70%30.07 "HgN/A
11:00 PM
Dec 25
79 °FPassing clouds.5 mph65%30.07 "HgN/A
10:00 PM81 °FPassing clouds.5 mph70%30.04 "HgN/A
9:00 PM79 °FPassing clouds.8 mph74%30.04 "HgN/A
8:00 PM81 °FPassing clouds.14 mph66%30.01 "HgN/A
7:00 PM82 °FScattered clouds.12 mph58%29.98 "HgN/A
6:00 PM84 °FPassing clouds.15 mph58%29.98 "HgN/A
5:00 PM84 °FPassing clouds.14 mph58%29.98 "HgN/A
4:00 PM86 °FPassing clouds.14 mph59%30.01 "HgN/A
3:00 PM86 °FPassing clouds.10 mph59%30.01 "HgN/A
2:00 PM86 °FPassing clouds.9 mph59%30.04 "HgN/A
1:00 PM86 °FPassing clouds.9 mph55%30.04 "HgN/A
12:00 PM84 °FScattered clouds.13 mph62%30.04 "HgN/A
11:00 AM81 °FScattered clouds.No wind70%30.07 "HgN/A
10:00 AM81 °FScattered clouds.5 mph70%30.07 "Hg4 mi
9:00 AM81 °FBroken clouds.3 mph74%30.04 "Hg4 mi
8:00 AM75 °FPartly sunny.6 mph89%30.04 "Hg4 mi
7:00 AM75 °FPartly sunny.3 mph83%30.04 "Hg5 mi
6:00 AM75 °FPassing clouds.3 mph83%30.01 "HgN/A
5:00 AM75 °FPassing clouds.5 mph83%30.01 "HgN/A
4:00 AM73 °FPassing clouds.No wind89%29.98 "HgN/A
Weather by CustomWeather, © 2014

See weather overviewHow to use our weather pages